Time,TemperatureF,DewpointF,PressureIn,WindDirection,WindDirectionDegrees,WindSpeedMPH,WindSpeedGustMPH,Humidity,HourlyPrecipIn,Conditions,Clouds,dailyrainin,SoftwareType,DateUTC
2013-01-22 00:02:00,27.0,27.0,30.21,NNW,333,0.0,1.0,98,0.00,,,0.00,,2013-01-22 08:02:00,
2013-01-22 00:11:00,27.0,27.0,30.21,NNW,333,0.0,1.0,98,0.00,,,0.00,,2013-01-22 08:11:00,
2013-01-22 00:22:00,27.0,27.0,30.20,South,186,0.0,0.0,98,0.00,,,0.00,,2013-01-22 08:22:00,
2013-01-22 00:32:00,26.0,26.0,30.20,NE,46,0.0,0.0,98,0.00,,,0.00,,2013-01-22 08:32:00,
2013-01-22 00:43:00,26.0,26.0,30.20,NE,46,0.0,0.0,98,0.00,,,0.00,,2013-01-22 08:43:00,
2013-01-22 00:52:00,26.0,26.0,30.19,NE,50,0.0,2.0,98,0.00,,,0.00,,2013-01-22 08:52:00,
2013-01-22 01:02:00,26.0,26.0,30.19,ESE,110,0.0,0.0,98,0.00,,,0.00,,2013-01-22 09:02:00,
2013-01-22 01:11:00,26.0,26.0,30.19,ESE,110,0.0,0.0,98,0.00,,,0.00,,2013-01-22 09:11:00,
2013-01-22 01:22:00,26.0,26.0,30.19,ESE,110,0.0,0.0,98,0.00,,,0.00,,2013-01-22 09:22:00,
2013-01-22 01:32:00,26.0,26.0,30.19,WSW,237,0.0,3.0,98,0.00,,,0.00,,2013-01-22 09:32:00,
2013-01-22 01:42:00,26.0,26.0,30.19,WSW,237,0.0,3.0,98,0.00,,,0.00,,2013-01-22 09:42:00,
2013-01-22 01:52:00,25.0,25.0,30.19,WNW,294,0.0,1.0,98,0.00,,,0.00,,2013-01-22 09:52:00,
2013-01-22 02:02:00,25.0,25.0,30.19,WNW,297,0.0,0.0,98,0.00,,,0.00,,2013-01-22 10:02:00,
2013-01-22 02:11:00,25.0,25.0,30.19,WNW,297,0.0,0.0,98,0.00,,,0.00,,2013-01-22 10:11:00,
2013-01-22 02:22:00,25.0,25.0,30.19,NNW,343,0.0,0.0,98,0.00,,,0.00,,2013-01-22 10:22:00,
2013-01-22 02:32:00,25.0,25.0,30.19,NNE,12,0.0,0.0,98,0.00,,,0.00,,2013-01-22 10:32:00,
2013-01-22 02:42:00,25.0,25.0,30.19,NNE,12,0.0,0.0,98,0.00,,,0.00,,2013-01-22 10:42:00,
2013-01-22 02:52:00,25.0,25.0,30.19,ENE,61,0.0,0.0,98,0.00,,,0.00,,2013-01-22 10:52:00,
2013-01-22 03:02:00,24.0,24.0,30.19,SW,219,0.0,0.0,98,0.00,,,0.00,,2013-01-22 11:02:00,
2013-01-22 03:11:00,24.0,24.0,30.19,SW,219,0.0,0.0,98,0.00,,,0.00,,2013-01-22 11:11:00,
2013-01-22 03:22:00,24.0,24.0,30.18,SW,219,0.0,0.0,98,0.00,,,0.00,,2013-01-22 11:22:00,
2013-01-22 03:32:00,25.0,25.0,30.19,WNW,289,0.0,4.0,98,0.00,,,0.00,,2013-01-22 11:32:00,
2013-01-22 03:42:00,25.0,25.0,30.19,WNW,289,0.0,4.0,98,0.00,,,0.00,,2013-01-22 11:42:00,
2013-01-22 03:53:00,25.0,25.0,30.19,WNW,291,0.0,0.0,98,0.00,,,0.00,,2013-01-22 11:53:00,
2013-01-22 04:02:00,25.0,25.0,30.19,NE,40,0.0,0.0,98,0.00,,,0.00,,2013-01-22 12:02:00,
2013-01-22 04:12:00,25.0,25.0,30.19,NE,40,0.0,0.0,98,0.00,,,0.00,,2013-01-22 12:12:00,
2013-01-22 04:22:00,25.0,25.0,30.19,NE,37,0.0,0.0,98,0.00,,,0.00,,2013-01-22 12:22:00,
2013-01-22 04:32:00,25.0,25.0,30.19,NE,37,0.0,0.0,98,0.00,,,0.00,,2013-01-22 12:32:00,
2013-01-22 04:42:00,26.0,26.0,30.19,WNW,288,0.0,0.0,98,0.00,,,0.00,,2013-01-22 12:42:00,
2013-01-22 04:52:00,26.0,26.0,30.18,NE,47,0.0,0.0,98,0.00,,,0.00,,2013-01-22 12:52:00,
2013-01-22 05:03:00,25.0,25.0,30.17,East,101,0.0,0.0,98,0.00,,,0.00,,2013-01-22 13:03:00,
2013-01-22 05:12:00,25.0,25.0,30.17,East,101,0.0,0.0,98,0.00,,,0.00,,2013-01-22 13:12:00,
2013-01-22 05:22:00,25.0,25.0,30.16,ENE,58,0.0,0.0,98,0.00,,,0.00,,2013-01-22 13:22:00,
2013-01-22 05:33:00,24.0,24.0,30.16,WNW,290,0.0,1.0,98,0.00,,,0.00,,2013-01-22 13:33:00,
2013-01-22 05:42:00,24.0,24.0,30.16,WNW,290,0.0,1.0,98,0.00,,,0.00,,2013-01-22 13:42:00,
2013-01-22 05:52:00,24.0,24.0,30.16,West,276,0.0,2.0,98,0.00,,,0.00,,2013-01-22 13:52:00,
2013-01-22 06:02:00,25.0,25.0,30.15,WNW,288,0.0,0.0,98,0.00,,,0.00,,2013-01-22 14:02:00,
2013-01-22 06:12:00,25.0,25.0,30.15,WNW,288,0.0,0.0,98,0.00,,,0.00,,2013-01-22 14:12:00,
2013-01-22 06:22:00,25.0,24.0,30.15,SSW,204,0.0,0.0,97,0.00,,,0.00,,2013-01-22 14:22:00,
2013-01-22 06:33:00,24.0,24.0,30.15,SSW,204,0.0,0.0,100,0.00,,,0.00,,2013-01-22 14:33:00,
2013-01-22 06:43:00,24.0,24.0,30.15,SSW,204,0.0,0.0,100,0.00,,,0.00,,2013-01-22 14:43:00,
2013-01-22 06:53:00,24.0,24.0,30.15,SSW,204,0.0,0.0,100,0.00,,,0.00,,2013-01-22 14:53:00,
2013-01-22 07:03:00,24.0,24.0,30.15,SSW,204,0.0,0.0,100,0.00,,,0.00,,2013-01-22 15:03:00,
2013-01-22 09:03:00,26.0,26.0,30.14,SW,215,0.0,0.0,98,0.00,,,0.00,,2013-01-22 17:03:00,
2013-01-22 09:12:00,26.0,26.0,30.14,SW,215,0.0,0.0,98,0.00,,,0.00,,2013-01-22 17:12:00,
2013-01-22 09:23:00,26.0,26.0,30.14,SW,215,0.0,0.0,98,0.00,,,0.00,,2013-01-22 17:23:00,
2013-01-22 09:33:00,27.0,27.0,30.14,SW,215,0.0,0.0,98,0.00,,,0.00,,2013-01-22 17:33:00,
2013-01-22 09:43:00,27.0,27.0,30.14,SW,215,0.0,0.0,98,0.00,,,0.00,,2013-01-22 17:43:00,
2013-01-22 09:53:00,27.0,27.0,30.14,WNW,297,0.0,0.0,98,0.00,,,0.00,,2013-01-22 17:53:00,
2013-01-22 10:03:00,28.0,28.0,30.14,West,281,0.0,0.0,98,0.00,,,0.00,,2013-01-22 18:03:00,
2013-01-22 10:12:00,28.0,28.0,30.14,West,281,0.0,0.0,98,0.00,,,0.00,,2013-01-22 18:12:00,
2013-01-22 10:23:00,28.0,28.0,30.14,West,278,0.0,1.0,98,0.00,,,0.00,,2013-01-22 18:23:00,
2013-01-22 10:33:00,29.0,29.0,30.14,SSW,197,0.0,0.0,99,0.00,,,0.00,,2013-01-22 18:33:00,
2013-01-22 10:42:00,29.0,29.0,30.14,SSW,197,0.0,0.0,99,0.00,,,0.00,,2013-01-22 18:42:00,
2013-01-22 10:53:00,30.0,30.0,30.14,SSE,151,0.0,0.0,99,0.00,,,0.00,,2013-01-22 18:53:00,
2013-01-22 11:03:00,31.0,31.0,30.13,ENE,76,0.0,0.0,99,0.00,,,0.00,,2013-01-22 19:03:00,
2013-01-22 11:12:00,31.0,31.0,30.13,ENE,76,0.0,0.0,99,0.00,,,0.00,,2013-01-22 19:12:00,
2013-01-22 11:22:00,31.0,31.0,30.13,ENE,67,0.0,0.0,99,0.00,,,0.00,,2013-01-22 19:22:00,
2013-01-22 11:33:00,31.0,31.0,30.14,West,281,2.0,5.0,99,0.00,,,0.00,,2013-01-22 19:33:00,
2013-01-22 11:42:00,31.0,31.0,30.14,West,281,2.0,5.0,99,0.00,,,0.00,,2013-01-22 19:42:00,
2013-01-22 11:53:00,31.0,31.0,30.14,West,281,2.0,5.0,99,0.00,,,0.00,,2013-01-22 19:53:00,
2013-01-22 12:03:00,32.0,32.0,30.13,West,273,0.0,1.0,99,0.00,,,0.00,,2013-01-22 20:03:00,
2013-01-22 12:12:00,32.0,32.0,30.13,West,273,0.0,1.0,99,0.00,,,0.00,,2013-01-22 20:12:00,
2013-01-22 12:23:00,32.0,32.0,30.12,WNW,285,0.0,2.0,99,0.00,,,0.00,,2013-01-22 20:23:00,
2013-01-22 12:33:00,33.0,33.0,30.11,SW,225,0.0,1.0,99,0.00,,,0.00,,2013-01-22 20:33:00,
2013-01-22 12:42:00,33.0,33.0,30.11,SW,225,0.0,1.0,99,0.00,,,0.00,,2013-01-22 20:42:00,
2013-01-22 12:53:00,33.0,33.0,30.11,West,273,0.0,0.0,99,0.00,,,0.00,,2013-01-22 20:53:00,
2013-01-22 13:03:00,34.0,34.0,30.11,WNW,284,0.0,0.0,99,0.00,,,0.00,,2013-01-22 21:03:00,
2013-01-22 13:12:00,34.0,34.0,30.11,WNW,284,0.0,0.0,99,0.00,,,0.00,,2013-01-22 21:12:00,
2013-01-22 13:22:00,34.0,34.0,30.10,SSW,211,0.0,0.0,99,0.00,,,0.00,,2013-01-22 21:22:00,
2013-01-22 13:33:00,35.0,35.0,30.10,SW,222,0.0,0.0,99,0.00,,,0.00,,2013-01-22 21:33:00,
2013-01-22 13:42:00,35.0,35.0,30.10,SW,222,0.0,0.0,99,0.00,,,0.00,,2013-01-22 21:42:00,
2013-01-22 13:53:00,34.0,34.0,30.09,SE,130,0.0,2.0,99,0.00,,,0.00,,2013-01-22 21:53:00,
2013-01-22 14:02:00,35.0,35.0,30.08,NE,54,0.0,1.0,99,0.00,,,0.00,,2013-01-22 22:02:00,
2013-01-22 14:12:00,35.0,35.0,30.08,NE,54,0.0,1.0,99,0.00,,,0.00,,2013-01-22 22:12:00,
2013-01-22 14:22:00,35.0,35.0,30.07,SSW,194,1.0,3.0,99,0.00,,,0.00,,2013-01-22 22:22:00,
2013-01-22 14:32:00,35.0,35.0,30.07,SSW,194,1.0,3.0,99,0.00,,,0.00,,2013-01-22 22:32:00,
2013-01-22 14:42:00,35.0,35.0,30.08,WSW,248,2.0,4.0,99,0.00,,,0.00,,2013-01-22 22:42:00,
2013-01-22 14:53:00,35.0,35.0,30.07,SW,225,0.0,1.0,99,0.00,,,0.00,,2013-01-22 22:53:00,
2013-01-22 15:02:00,36.0,36.0,30.07,SSE,150,0.0,0.0,99,0.00,,,0.00,,2013-01-22 23:02:00,
2013-01-22 15:12:00,36.0,36.0,30.07,SSE,150,0.0,0.0,99,0.00,,,0.00,,2013-01-22 23:12:00,
2013-01-22 15:23:00,37.0,37.0,30.06,ENE,73,0.0,0.0,99,0.00,,,0.00,,2013-01-22 23:23:00,
2013-01-22 15:32:00,37.0,37.0,30.06,West,273,0.0,1.0,99,0.00,,,0.00,,2013-01-22 23:32:00,
2013-01-22 15:42:00,37.0,37.0,30.06,West,273,0.0,1.0,99,0.00,,,0.00,,2013-01-22 23:42:00,
2013-01-22 15:52:00,36.0,36.0,30.06,WSW,246,0.0,0.0,99,0.00,,,0.00,,2013-01-22 23:52:00,
2013-01-22 16:02:00,36.0,36.0,30.05,ESE,104,0.0,1.0,99,0.00,,,0.00,,2013-01-23 00:02:00,
2013-01-22 16:12:00,36.0,36.0,30.05,ESE,104,0.0,1.0,99,0.00,,,0.00,,2013-01-23 00:12:00,
2013-01-22 16:22:00,36.0,36.0,30.04,West,259,0.0,0.0,99,0.00,,,0.00,,2013-01-23 00:22:00,
2013-01-22 16:32:00,36.0,36.0,30.04,WNW,293,0.0,1.0,99,0.00,,,0.00,,2013-01-23 00:32:00,
2013-01-22 16:42:00,36.0,36.0,30.04,WNW,293,0.0,1.0,99,0.00,,,0.00,,2013-01-23 00:42:00,
2013-01-22 16:52:00,36.0,36.0,30.04,NNE,32,0.0,0.0,99,0.00,,,0.00,,2013-01-23 00:52:00,
2013-01-22 17:02:00,35.0,35.0,30.05,SW,236,0.0,0.0,99,0.00,,,0.00,,2013-01-23 01:02:00,
2013-01-22 17:12:00,35.0,35.0,30.05,SW,236,0.0,0.0,99,0.00,,,0.00,,2013-01-23 01:12:00,
2013-01-22 17:22:00,35.0,35.0,30.05,SW,236,0.0,0.0,99,0.00,,,0.00,,2013-01-23 01:22:00,
2013-01-22 17:32:00,35.0,35.0,30.03,NE,54,0.0,1.0,99,0.00,,,0.00,,2013-01-23 01:32:00,
2013-01-22 17:42:00,35.0,35.0,30.03,NE,54,0.0,1.0,99,0.00,,,0.00,,2013-01-23 01:42:00,
2013-01-22 17:53:00,35.0,35.0,30.01,NE,54,0.0,1.0,99,0.00,,,0.00,,2013-01-23 01:53:00,
2013-01-22 18:03:00,35.0,35.0,30.01,NE,51,0.0,0.0,99,0.00,,,0.00,,2013-01-23 02:03:00,
2013-01-22 18:12:00,35.0,35.0,30.01,NE,51,0.0,0.0,99,0.00,,,0.00,,2013-01-23 02:12:00,
2013-01-22 18:22:00,35.0,35.0,30.02,WNW,296,1.0,2.0,99,0.00,,,0.00,,2013-01-23 02:22:00,
2013-01-22 18:32:00,35.0,35.0,30.02,NW,312,0.0,0.0,99,0.00,,,0.00,,2013-01-23 02:32:00,
2013-01-22 18:42:00,35.0,35.0,30.02,NW,312,0.0,0.0,99,0.00,,,0.00,,2013-01-23 02:42:00,
2013-01-22 18:53:00,34.0,34.0,30.02,WNW,296,0.0,0.0,99,0.00,,,0.00,,2013-01-23 02:53:00,
2013-01-22 19:02:00,34.0,34.0,30.02,West,280,0.0,1.0,99,0.00,,,0.00,,2013-01-23 03:02:00,
2013-01-22 19:12:00,34.0,34.0,30.02,West,280,0.0,1.0,99,0.00,,,0.00,,2013-01-23 03:12:00,
2013-01-22 19:22:00,34.0,34.0,30.00,NE,56,0.0,3.0,99,0.00,,,0.00,,2013-01-23 03:22:00,
2013-01-22 19:32:00,34.0,34.0,30.00,East,90,0.0,3.0,99,0.00,,,0.00,,2013-01-23 03:32:00,
2013-01-22 19:42:00,34.0,34.0,30.00,East,90,0.0,3.0,99,0.00,,,0.00,,2013-01-23 03:42:00,
2013-01-22 19:53:00,34.0,34.0,29.98,NE,44,1.0,2.0,99,0.00,,,0.00,,2013-01-23 03:53:00,
2013-01-22 20:02:00,34.0,34.0,29.99,NNW,337,0.0,0.0,99,0.00,,,0.00,,2013-01-23 04:02:00,
2013-01-22 20:12:00,34.0,34.0,29.99,NNW,337,0.0,0.0,99,0.00,,,0.00,,2013-01-23 04:12:00,
2013-01-22 20:22:00,35.0,35.0,29.98,NE,41,0.0,0.0,99,0.00,,,0.00,,2013-01-23 04:22:00,
2013-01-22 20:32:00,35.0,35.0,29.99,North,5,0.0,0.0,99,0.00,,,0.00,,2013-01-23 04:32:00,
2013-01-22 20:42:00,35.0,35.0,29.99,North,5,0.0,0.0,99,0.00,,,0.00,,2013-01-23 04:42:00,
2013-01-22 20:53:00,35.0,35.0,29.99,NE,45,1.0,2.0,99,0.00,,,0.00,,2013-01-23 04:53:00,
2013-01-22 21:03:00,34.0,34.0,29.99,NE,41,1.0,3.0,99,0.00,,,0.00,,2013-01-23 05:03:00,
2013-01-22 21:12:00,34.0,34.0,29.99,NE,41,1.0,3.0,99,0.00,,,0.00,,2013-01-23 05:12:00,
2013-01-22 21:22:00,35.0,35.0,29.98,NE,37,1.0,2.0,99,0.00,,,0.00,,2013-01-23 05:22:00,
2013-01-22 21:32:00,35.0,35.0,29.98,NE,37,1.0,2.0,99,0.00,,,0.00,,2013-01-23 05:32:00,
2013-01-22 21:42:00,35.0,35.0,29.98,NE,37,1.0,2.0,99,0.00,,,0.00,,2013-01-23 05:42:00,
2013-01-22 21:53:00,35.0,35.0,29.98,NW,304,0.0,2.0,99,0.00,,,0.00,,2013-01-23 05:53:00,
2013-01-22 22:02:00,35.0,35.0,29.98,West,263,0.0,0.0,99,0.00,,,0.00,,2013-01-23 06:02:00,
2013-01-22 22:12:00,35.0,35.0,29.98,West,263,0.0,0.0,99,0.00,,,0.00,,2013-01-23 06:12:00,
2013-01-22 22:22:00,35.0,35.0,29.98,West,263,0.0,0.0,99,0.00,,,0.00,,2013-01-23 06:22:00,
2013-01-22 22:32:00,35.0,35.0,29.98,NW,311,0.0,0.0,99,0.00,,,0.00,,2013-01-23 06:32:00,
2013-01-22 22:42:00,35.0,35.0,29.98,NW,311,0.0,0.0,99,0.00,,,0.00,,2013-01-23 06:42:00,
2013-01-22 22:52:00,35.0,35.0,29.97,NE,39,0.0,2.0,99,0.00,,,0.00,,2013-01-23 06:52:00,
2013-01-22 23:02:00,35.0,35.0,29.97,ENE,58,0.0,0.0,99,0.00,,,0.00,,2013-01-23 07:02:00,
2013-01-22 23:12:00,35.0,35.0,29.97,ENE,58,0.0,0.0,99,0.00,,,0.00,,2013-01-23 07:12:00,
2013-01-22 23:22:00,35.0,35.0,29.97,NNE,15,0.0,0.0,99,0.00,,,0.00,,2013-01-23 07:22:00,
2013-01-22 23:32:00,36.0,36.0,29.98,WSW,256,0.0,4.0,99,0.00,,,0.00,,2013-01-23 07:32:00,
2013-01-22 23:42:00,36.0,36.0,29.98,WSW,256,0.0,4.0,99,0.00,,,0.00,,2013-01-23 07:42:00,
2013-01-22 23:53:00,36.0,36.0,29.98,North,1,0.0,0.0,99,0.00,,,0.00,,2013-01-23 07:53:00,